Time,TemperatureF,DewpointF,PressureIn,WindDirection,WindDirectionDegrees,WindSpeedMPH,WindSpeedGustMPH,Humidity,HourlyPrecipIn,Conditions,Clouds,dailyrainin,SolarRadiationWatts/m^2,SoftwareType,DateUTC
2013-01-03 00:02:00,28.0,14.0,30.18,WNW,290,4.0,5.0,55,-99.99,,,-99.99,0.000000,,2013-01-03 07:02:00,
2013-01-03 00:12:00,28.0,14.0,30.18,SSW,209,2.0,5.0,55,-99.99,,,-99.99,0.000000,,2013-01-03 07:12:00,
2013-01-03 00:22:00,28.0,14.0,30.18,SSW,209,2.0,5.0,55,-99.99,,,-99.99,0.000000,,2013-01-03 07:22:00,
2013-01-03 00:32:00,29.0,15.0,30.17,West,265,2.0,5.0,54,-99.99,,,-99.99,0.000000,,2013-01-03 07:32:00,
2013-01-03 00:42:00,28.0,15.0,30.17,WNW,285,4.0,7.0,57,-99.99,,,-99.99,0.000000,,2013-01-03 07:42:00,
2013-01-03 00:53:00,28.0,15.0,30.17,WNW,285,4.0,7.0,57,-99.99,,,-99.99,0.000000,,2013-01-03 07:53:00,
2013-01-03 01:02:00,30.0,15.0,30.17,West,267,3.0,5.0,53,-99.99,,,-99.99,0.000000,,2013-01-03 08:02:00,
2013-01-03 01:12:00,30.0,17.0,30.16,WSW,241,2.0,4.0,58,-99.99,,,-99.99,0.000000,,2013-01-03 08:12:00,
2013-01-03 01:22:00,30.0,17.0,30.16,WSW,241,2.0,4.0,58,-99.99,,,-99.99,0.000000,,2013-01-03 08:22:00,
2013-01-03 01:32:00,30.0,18.0,30.16,SSW,213,3.0,8.0,59,-99.99,,,-99.99,0.000000,,2013-01-03 08:32:00,
2013-01-03 01:42:00,32.0,17.0,30.16,SSW,202,5.0,9.0,55,-99.99,,,-99.99,0.000000,,2013-01-03 08:42:00,
2013-01-03 01:53:00,32.0,17.0,30.16,SSW,202,5.0,9.0,55,-99.99,,,-99.99,0.000000,,2013-01-03 08:53:00,
2013-01-03 02:02:00,31.0,17.0,30.16,SSW,208,6.0,8.0,55,-99.99,,,-99.99,0.000000,,2013-01-03 09:02:00,
2013-01-03 02:12:00,31.0,17.0,30.17,SSW,209,5.0,9.0,55,-99.99,,,-99.99,0.000000,,2013-01-03 09:12:00,
2013-01-03 02:22:00,31.0,17.0,30.17,SSW,209,5.0,9.0,55,-99.99,,,-99.99,0.000000,,2013-01-03 09:22:00,
2013-01-03 02:33:00,32.0,17.0,30.17,SSW,211,5.0,9.0,52,-99.99,,,-99.99,0.000000,,2013-01-03 09:33:00,
2013-01-03 02:43:00,32.0,16.0,30.17,SSW,211,5.0,8.0,51,-99.99,,,-99.99,0.000000,,2013-01-03 09:43:00,
2013-01-03 02:53:00,32.0,16.0,30.17,SSW,211,5.0,8.0,51,-99.99,,,-99.99,0.000000,,2013-01-03 09:53:00,
2013-01-03 03:02:00,31.0,16.0,30.17,SW,214,4.0,7.0,52,-99.99,,,-99.99,0.000000,,2013-01-03 10:02:00,
2013-01-03 03:12:00,31.0,16.0,30.17,SW,214,4.0,7.0,52,-99.99,,,-99.99,0.000000,,2013-01-03 10:12:00,
2013-01-03 03:22:00,31.0,16.0,30.17,SW,214,4.0,7.0,52,-99.99,,,-99.99,0.000000,,2013-01-03 10:22:00,
2013-01-03 03:32:00,31.0,16.0,30.18,SW,216,3.0,7.0,52,-99.99,,,-99.99,0.000000,,2013-01-03 10:32:00,
2013-01-03 03:42:00,30.0,16.0,30.19,SW,226,3.0,6.0,53,-99.99,,,-99.99,0.000000,,2013-01-03 10:42:00,
2013-01-03 03:53:00,30.0,16.0,30.19,SW,226,3.0,6.0,53,-99.99,,,-99.99,0.000000,,2013-01-03 10:53:00,
2013-01-03 04:02:00,31.0,16.0,30.19,SW,224,3.0,6.0,52,-99.99,,,-99.99,0.000000,,2013-01-03 11:02:00,
2013-01-03 04:12:00,32.0,16.0,30.19,SW,214,4.0,7.0,50,-99.99,,,-99.99,0.000000,,2013-01-03 11:12:00,
2013-01-03 04:22:00,32.0,16.0,30.19,SW,214,4.0,7.0,50,-99.99,,,-99.99,0.000000,,2013-01-03 11:22:00,
2013-01-03 04:33:00,32.0,16.0,30.19,SSW,210,4.0,7.0,50,-99.99,,,-99.99,0.000000,,2013-01-03 11:33:00,
2013-01-03 04:43:00,32.0,15.0,30.19,SSW,194,3.0,6.0,50,-99.99,,,-99.99,0.000000,,2013-01-03 11:43:00,
2013-01-03 04:53:00,32.0,15.0,30.19,SSW,194,3.0,6.0,50,-99.99,,,-99.99,0.000000,,2013-01-03 11:53:00,
2013-01-03 05:02:00,32.0,15.0,30.18,SSW,202,4.0,7.0,50,-99.99,,,-99.99,0.000000,,2013-01-03 12:02:00,
2013-01-03 05:12:00,31.0,15.0,30.17,SSW,204,4.0,6.0,50,-99.99,,,-99.99,0.000000,,2013-01-03 12:12:00,
2013-01-03 05:22:00,31.0,15.0,30.17,SSW,204,4.0,6.0,50,-99.99,,,-99.99,0.000000,,2013-01-03 12:22:00,
2013-01-03 05:32:00,31.0,15.0,30.17,SSW,205,5.0,8.0,52,-99.99,,,-99.99,0.000000,,2013-01-03 12:32:00,
2013-01-03 05:42:00,31.0,16.0,30.18,SSW,205,4.0,7.0,51,-99.99,,,-99.99,0.000000,,2013-01-03 12:42:00,
2013-01-03 05:53:00,31.0,16.0,30.18,SSW,205,4.0,7.0,51,-99.99,,,-99.99,0.000000,,2013-01-03 12:53:00,
2013-01-03 06:02:00,32.0,16.0,30.18,South,189,5.0,11.0,50,-99.99,,,-99.99,0.000000,,2013-01-03 13:02:00,
2013-01-03 06:12:00,32.0,16.0,30.18,South,190,5.0,8.0,50,-99.99,,,-99.99,0.000000,,2013-01-03 13:12:00,
2013-01-03 06:22:00,32.0,16.0,30.18,South,190,5.0,8.0,50,-99.99,,,-99.99,0.000000,,2013-01-03 13:22:00,
2013-01-03 06:33:00,32.0,16.0,30.19,South,191,6.0,8.0,51,-99.99,,,-99.99,0.000000,,2013-01-03 13:33:00,
2013-01-03 06:42:00,32.0,17.0,30.21,SSW,192,8.0,12.0,52,-99.99,,,-99.99,0.000000,,2013-01-03 13:42:00,
2013-01-03 06:53:00,32.0,17.0,30.21,SSW,192,8.0,12.0,52,-99.99,,,-99.99,0.000000,,2013-01-03 13:53:00,
2013-01-03 07:03:00,32.0,17.0,30.21,South,191,7.0,11.0,53,-99.99,,,-99.99,0.000000,,2013-01-03 14:03:00,
2013-01-03 07:12:00,31.0,16.0,30.22,South,188,8.0,14.0,53,-99.99,,,-99.99,0.000000,,2013-01-03 14:12:00,
2013-01-03 07:23:00,31.0,16.0,30.22,South,188,8.0,14.0,53,-99.99,,,-99.99,0.000000,,2013-01-03 14:23:00,
2013-01-03 07:33:00,28.0,19.0,30.23,South,182,11.0,18.0,67,-99.99,,,-99.99,0.000000,,2013-01-03 14:33:00,
2013-01-03 07:42:00,27.0,23.0,30.24,SSW,192,12.0,18.0,84,-99.99,,,-99.99,0.700000,,2013-01-03 14:42:00,
2013-01-03 07:53:00,27.0,23.0,30.24,SSW,192,12.0,18.0,84,-99.99,,,-99.99,0.700000,,2013-01-03 14:53:00,
2013-01-03 08:03:00,27.0,24.0,30.24,SSW,198,8.0,13.0,87,-99.99,,,-99.99,6.280000,,2013-01-03 15:03:00,
2013-01-03 08:12:00,27.0,23.0,30.25,SSW,207,3.0,9.0,84,-99.99,,,-99.99,9.760000,,2013-01-03 15:12:00,
2013-01-03 08:22:00,27.0,23.0,30.25,SSW,207,3.0,9.0,84,-99.99,,,-99.99,9.760000,,2013-01-03 15:22:00,
2013-01-03 08:33:00,28.0,23.0,30.25,NW,324,1.0,3.0,83,-99.99,,,-99.99,10.460000,,2013-01-03 15:33:00,
2013-01-03 08:43:00,28.0,24.0,30.26,SSW,193,4.0,7.0,85,-99.99,,,-99.99,11.850000,,2013-01-03 15:43:00,
2013-01-03 08:53:00,28.0,24.0,30.26,SSW,193,4.0,7.0,85,-99.99,,,-99.99,11.850000,,2013-01-03 15:53:00,
2013-01-03 09:03:00,27.0,24.0,30.27,South,187,3.0,5.0,89,-99.99,,,-99.99,16.740000,,2013-01-03 16:03:00,
2013-01-03 09:12:00,27.0,25.0,30.27,South,180,3.0,5.0,91,-99.99,,,-99.99,31.379999,,2013-01-03 16:12:00,
2013-01-03 09:22:00,27.0,25.0,30.27,South,180,3.0,5.0,91,-99.99,,,-99.99,31.379999,,2013-01-03 16:22:00,
2013-01-03 09:33:00,27.0,25.0,30.28,SSE,165,3.0,4.0,93,-99.99,,,-99.99,29.990000,,2013-01-03 16:33:00,
2013-01-03 09:43:00,27.0,26.0,30.29,SSE,161,4.0,6.0,94,-99.99,,,-99.99,39.049999,,2013-01-03 16:43:00,
2013-01-03 09:53:00,27.0,26.0,30.29,SSE,161,4.0,6.0,94,-99.99,,,-99.99,39.049999,,2013-01-03 16:53:00,
2013-01-03 10:03:00,27.0,26.0,30.30,SSE,147,3.0,4.0,96,-99.99,,,-99.99,46.720001,,2013-01-03 17:03:00,
2013-01-03 10:12:00,27.0,26.0,30.30,SSE,151,2.0,5.0,97,-99.99,,,-99.99,60.669998,,2013-01-03 17:12:00,
2013-01-03 10:23:00,27.0,26.0,30.30,SSE,151,2.0,5.0,97,-99.99,,,-99.99,60.669998,,2013-01-03 17:23:00,
2013-01-03 10:33:00,27.0,27.0,30.30,South,173,5.0,7.0,97,-99.99,,,-99.99,69.040001,,2013-01-03 17:33:00,
2013-01-03 10:43:00,27.0,27.0,30.30,SSE,157,3.0,8.0,97,-99.99,,,-99.99,78.800003,,2013-01-03 17:43:00,
2013-01-03 10:53:00,27.0,27.0,30.30,SSE,157,3.0,8.0,97,-99.99,,,-99.99,78.800003,,2013-01-03 17:53:00,
2013-01-03 11:03:00,27.0,27.0,30.30,SE,127,2.0,4.0,97,-99.99,,,-99.99,94.839996,,2013-01-03 18:03:00,
2013-01-03 11:13:00,27.0,27.0,30.30,SE,127,2.0,4.0,97,-99.99,,,-99.99,94.839996,,2013-01-03 18:13:00,
2013-01-03 11:22:00,27.0,27.0,30.30,SE,127,2.0,4.0,97,-99.99,,,-99.99,94.839996,,2013-01-03 18:22:00,
2013-01-03 11:33:00,28.0,27.0,30.29,SE,135,3.0,6.0,97,-99.99,,,-99.99,87.860001,,2013-01-03 18:33:00,
2013-01-03 11:42:00,27.0,27.0,30.29,ESE,112,4.0,9.0,97,-99.99,,,-99.99,63.459999,,2013-01-03 18:42:00,
2013-01-03 11:53:00,27.0,27.0,30.29,ESE,112,4.0,9.0,97,-99.99,,,-99.99,63.459999,,2013-01-03 18:53:00,
2013-01-03 12:03:00,27.0,27.0,30.28,East,94,6.0,12.0,97,-99.99,,,-99.99,86.470001,,2013-01-03 19:03:00,
2013-01-03 12:12:00,27.0,27.0,30.27,East,86,5.0,8.0,97,-99.99,,,-99.99,103.209999,,2013-01-03 19:12:00,
2013-01-03 12:57:00,27.0,27.0,30.26,East,88,4.0,6.0,98,-99.99,,,-99.99,163.869995,,2013-01-03 19:57:00,
2013-01-03 13:03:00,28.0,27.0,30.26,ENE,64,4.0,8.0,98,-99.99,,,-99.99,161.779999,,2013-01-03 20:03:00,
2013-01-03 13:12:00,28.0,27.0,30.26,ENE,66,4.0,7.0,98,-99.99,,,-99.99,171.539993,,2013-01-03 20:12:00,
2013-01-03 13:22:00,28.0,27.0,30.26,ENE,66,4.0,7.0,98,-99.99,,,-99.99,171.539993,,2013-01-03 20:22:00,
2013-01-03 13:33:00,28.0,28.0,30.25,ENE,59,4.0,7.0,98,-99.99,,,-99.99,213.380005,,2013-01-03 20:33:00,
2013-01-03 13:42:00,28.0,27.0,30.25,East,80,3.0,5.0,98,-99.99,,,-99.99,194.559998,,2013-01-03 20:42:00,
2013-01-03 13:53:00,28.0,27.0,30.25,East,80,3.0,5.0,98,-99.99,,,-99.99,194.559998,,2013-01-03 20:53:00,
2013-01-03 14:02:00,28.0,27.0,30.25,ESE,102,4.0,7.0,98,-99.99,,,-99.99,162.479996,,2013-01-03 21:02:00,
2013-01-03 14:12:00,27.0,27.0,30.25,ESE,106,4.0,6.0,99,-99.99,,,-99.99,126.220001,,2013-01-03 21:12:00,
2013-01-03 14:23:00,27.0,27.0,30.25,ESE,106,4.0,6.0,99,-99.99,,,-99.99,126.220001,,2013-01-03 21:23:00,
2013-01-03 14:36:00,27.0,27.0,30.24,ESE,106,4.0,7.0,99,-99.99,,,-99.99,110.180000,,2013-01-03 21:36:00,
2013-01-03 14:48:00,27.0,27.0,30.24,SE,127,2.0,6.0,99,-99.99,,,-99.99,129.009995,,2013-01-03 21:48:00,
2013-01-03 15:02:00,28.0,28.0,30.24,SSE,153,2.0,5.0,99,-99.99,,,-99.99,131.800003,,2013-01-03 22:02:00,
2013-01-03 15:12:00,28.0,28.0,30.24,SSE,159,3.0,5.0,99,-99.99,,,-99.99,136.679993,,2013-01-03 22:12:00,
2013-01-03 15:22:00,28.0,28.0,30.24,SSE,159,3.0,5.0,99,-99.99,,,-99.99,136.679993,,2013-01-03 22:22:00,
2013-01-03 15:33:00,28.0,28.0,30.24,SSE,164,2.0,4.0,99,-99.99,,,-99.99,124.129997,,2013-01-03 22:33:00,
2013-01-03 15:42:00,28.0,28.0,30.24,South,172,3.0,5.0,99,-99.99,,,-99.99,86.470001,,2013-01-03 22:42:00,
2013-01-03 15:52:00,28.0,28.0,30.24,South,172,3.0,5.0,99,-99.99,,,-99.99,86.470001,,2013-01-03 22:52:00,
2013-01-03 16:02:00,28.0,28.0,30.24,SSW,200,3.0,4.0,99,-99.99,,,-99.99,59.270000,,2013-01-03 23:02:00,
2013-01-03 16:12:00,28.0,28.0,30.24,SSW,205,3.0,5.0,99,-99.99,,,-99.99,39.750000,,2013-01-03 23:12:00,
2013-01-03 16:22:00,28.0,28.0,30.24,SSW,205,3.0,5.0,99,-99.99,,,-99.99,39.750000,,2013-01-03 23:22:00,
2013-01-03 16:33:00,28.0,28.0,30.24,South,184,4.0,6.0,99,-99.99,,,-99.99,36.259998,,2013-01-03 23:33:00,
2013-01-03 16:43:00,28.0,28.0,30.25,South,172,5.0,7.0,100,-99.99,,,-99.99,20.219999,,2013-01-03 23:43:00,
2013-01-03 16:53:00,28.0,28.0,30.25,South,172,5.0,7.0,100,-99.99,,,-99.99,20.219999,,2013-01-03 23:53:00,
2013-01-03 17:03:00,28.0,28.0,30.25,South,178,5.0,7.0,100,-99.99,,,-99.99,15.340000,,2013-01-04 00:03:00,
2013-01-03 17:12:00,27.0,27.0,30.25,SE,124,5.0,8.0,100,-99.99,,,-99.99,7.670000,,2013-01-04 00:12:00,
2013-01-03 17:22:00,27.0,27.0,30.25,SE,124,5.0,8.0,100,-99.99,,,-99.99,7.670000,,2013-01-04 00:22:00,
2013-01-03 17:32:00,27.0,27.0,30.24,East,89,4.0,6.0,100,-99.99,,,-99.99,4.880000,,2013-01-04 00:32:00,
2013-01-03 17:42:00,27.0,27.0,30.24,East,89,3.0,5.0,100,-99.99,,,-99.99,2.090000,,2013-01-04 00:42:00,
2013-01-03 17:53:00,27.0,27.0,30.24,East,89,3.0,5.0,100,-99.99,,,-99.99,2.090000,,2013-01-04 00:53:00,
2013-01-03 18:02:00,27.0,27.0,30.25,ESE,122,3.0,5.0,100,-99.99,,,-99.99,0.700000,,2013-01-04 01:02:00,
2013-01-03 18:12:00,27.0,27.0,30.26,SE,135,3.0,4.0,100,-99.99,,,-99.99,0.000000,,2013-01-04 01:12:00,
2013-01-03 18:22:00,27.0,27.0,30.26,SE,135,3.0,4.0,100,-99.99,,,-99.99,0.000000,,2013-01-04 01:22:00,
2013-01-03 18:32:00,27.0,27.0,30.27,ESE,117,2.0,4.0,100,-99.99,,,-99.99,0.000000,,2013-01-04 01:32:00,
2013-01-03 18:42:00,26.0,26.0,30.27,ESE,113,2.0,4.0,100,-99.99,,,-99.99,0.000000,,2013-01-04 01:42:00,
2013-01-03 18:52:00,26.0,26.0,30.27,ESE,113,2.0,4.0,100,-99.99,,,-99.99,0.000000,,2013-01-04 01:52:00,
2013-01-03 19:02:00,26.0,26.0,30.27,SE,131,2.0,4.0,100,-99.99,,,-99.99,0.000000,,2013-01-04 02:02:00,
2013-01-03 19:12:00,26.0,26.0,30.27,ESE,118,1.0,3.0,100,-99.99,,,-99.99,0.000000,,2013-01-04 02:12:00,
2013-01-03 19:22:00,26.0,26.0,30.27,ESE,118,1.0,3.0,100,-99.99,,,-99.99,0.000000,,2013-01-04 02:22:00,
2013-01-03 19:32:00,26.0,26.0,30.28,SE,139,1.0,3.0,100,-99.99,,,-99.99,0.000000,,2013-01-04 02:32:00,
2013-01-03 19:42:00,27.0,27.0,30.28,SE,138,3.0,5.0,100,-99.99,,,-99.99,0.000000,,2013-01-04 02:42:00,
2013-01-03 19:53:00,27.0,27.0,30.28,SE,138,3.0,5.0,100,-99.99,,,-99.99,0.000000,,2013-01-04 02:53:00,
2013-01-03 20:02:00,27.0,27.0,30.29,SE,140,1.0,3.0,100,-99.99,,,-99.99,0.000000,,2013-01-04 03:02:00,
2013-01-03 20:12:00,27.0,27.0,30.28,North,0,0.0,0.0,100,-99.99,,,-99.99,0.000000,,2013-01-04 03:12:00,
2013-01-03 20:22:00,27.0,27.0,30.28,North,0,0.0,0.0,100,-99.99,,,-99.99,0.000000,,2013-01-04 03:22:00,
2013-01-03 20:32:00,27.0,27.0,30.28,South,184,2.0,7.0,100,-99.99,,,-99.99,0.000000,,2013-01-04 03:32:00,
2013-01-03 20:42:00,26.0,26.0,30.29,South,185,4.0,8.0,100,-99.99,,,-99.99,0.000000,,2013-01-04 03:42:00,
2013-01-03 20:53:00,26.0,26.0,30.29,South,185,4.0,8.0,100,-99.99,,,-99.99,0.000000,,2013-01-04 03:53:00,
2013-01-03 21:02:00,26.0,26.0,30.29,South,186,4.0,6.0,100,-99.99,,,-99.99,0.000000,,2013-01-04 04:02:00,
2013-01-03 21:12:00,26.0,26.0,30.29,SSE,168,3.0,6.0,100,-99.99,,,-99.99,0.000000,,2013-01-04 04:12:00,
2013-01-03 21:22:00,26.0,26.0,30.29,SSE,168,3.0,6.0,100,-99.99,,,-99.99,0.000000,,2013-01-04 04:22:00,
2013-01-03 21:32:00,26.0,26.0,30.29,South,182,2.0,4.0,100,-99.99,,,-99.99,0.000000,,2013-01-04 04:32:00,
2013-01-03 21:42:00,26.0,26.0,30.29,SSW,195,3.0,5.0,100,-99.99,,,-99.99,0.000000,,2013-01-04 04:42:00,
2013-01-03 21:52:00,26.0,26.0,30.30,SSW,203,4.0,6.0,100,-99.99,,,-99.99,0.000000,,2013-01-04 04:52:00,
2013-01-03 22:03:00,26.0,26.0,30.30,SSW,203,4.0,6.0,100,-99.99,,,-99.99,0.000000,,2013-01-04 05:03:00,
2013-01-03 22:12:00,26.0,26.0,30.30,SSW,207,4.0,6.0,100,-99.99,,,-99.99,0.000000,,2013-01-04 05:12:00,
2013-01-03 22:22:00,26.0,26.0,30.30,SSW,207,4.0,6.0,100,-99.99,,,-99.99,0.000000,,2013-01-04 05:22:00,
2013-01-03 22:33:00,26.0,26.0,30.30,SSW,206,3.0,5.0,100,-99.99,,,-99.99,0.000000,,2013-01-04 05:33:00,
2013-01-03 22:42:00,26.0,26.0,30.31,SSW,204,3.0,5.0,100,-99.99,,,-99.99,0.000000,,2013-01-04 05:42:00,
2013-01-03 22:53:00,26.0,26.0,30.31,SSW,204,3.0,5.0,100,-99.99,,,-99.99,0.000000,,2013-01-04 05:53:00,
2013-01-03 23:02:00,26.0,26.0,30.31,SW,215,0.0,1.0,100,-99.99,,,-99.99,0.000000,,2013-01-04 06:02:00,
2013-01-03 23:12:00,26.0,26.0,30.31,SW,216,0.0,1.0,100,-99.99,,,-99.99,0.000000,,2013-01-04 06:12:00,
2013-01-03 23:22:00,26.0,26.0,30.31,SW,216,0.0,1.0,100,-99.99,,,-99.99,0.000000,,2013-01-04 06:22:00,
2013-01-03 23:33:00,25.0,25.0,30.31,SW,226,2.0,4.0,100,-99.99,,,-99.99,0.000000,,2013-01-04 06:33:00,
2013-01-03 23:42:00,25.0,25.0,30.31,WSW,238,1.0,2.0,100,-99.99,,,-99.99,0.000000,,2013-01-04 06:42:00,
2013-01-03 23:52:00,25.0,25.0,30.31,WSW,238,1.0,2.0,100,-99.99,,,-99.99,0.000000,,2013-01-04 06:52:00,